SCP
0 0 0 0 0 0 0 0 0 0 0 0 0 0 0 0 0 0 0 0 0 0 0 0 0 0 0 0 0 0 0 0
0 0 0 0 0 0 0 0 0 0 0 0 0 0 0 0 0 0 0 0 0 0 0 0 0 0 0 0 0 0 0 0
0 0 0 0 0 0 -0 -0 -0 -0 -0 -0 0 0 0 0 0 0 0 0 0 0 0 0 0 0 0 0 0 0 0 0
0 0 0 0 0 0 0 -0 -0 -0 -0 -0 -0 0 0 0 0 0 0 0 0 0 0 0 0 0 0 0 0 0 0 0
0 0 0 0 0 0 0 -0 0 0 0 0 0 0 0 0 0 0 0 0 0 0 0 0 0 0 0 0 0 0 0 0
0 0 0 0 0 0 -0 0 0 0 0 0 0 0 0 0 0 0 0 0 0 0 0 0 0 0 0 0 0 0 0 0
0 0 0 0 0 -0 0 0 0 0 0 0 0 0 0 0 0 0 0 0 0 0 0 0 0 0 0 0 0 0 0 0
0 0 0 0 0 0 0 0 0 0 0 0 0 0 0 0 0 0 0 0 0 0 0 0 0 0 0 0 0 0 0 0
0 0 0 0 0 0 0 0 0 0 0 0 0 0 0 0 0 0 0 0 0 0 0 0 0 0 0 0 0 0 0 0
0 0 0 0 0 0 0 -0 0 0 0 0 0 0 0 0 0 0 0 0 0 0 0 0 0 0 0 0 0 0 0 0
0 0 0 0 0 -0 -0 -0 -0 0 0 0 0 0 0 0 0 0 0 0 0 0 0 0 0 0 -0 0 0 0 0 0
0 0 0 0 0 0 0 -0 -0 -0 0 0 0 0 0 0 0 0 0 0 0 0 0 0 0 0 -0 -0 -0 0 0 0
0 0 0 0 0 0 0 0 -0 -0 0 0 0 0 0 0 0 0 0 0 0 0 0 0 0 0 -0 -0 -0 0 0 0
0 0 0 0 0 0 0 0 0 0 0 0 0 0 0 0 0 0 0 0 0 0 0 0 0 0 0 -0 0 0 0 0
0 0 0 0 0 0 0 0 0 0 0 0 0 0 0 0 0 0 0 0 0 0 0 0 0 0 0 0 -0 -0 -0 0
-0 0 0 0 0 0 0 0 0 0 0 0 0 0 0 0 0 0 0 0 0 0 0 0 0 0 -0 0 0 0 0 0
-0 -0 -0 0 0 0 0 0 0 0 0 0 0 0 0 0 0 0 0 0 0 0 0 0 0 0 0 0 0 0 0 0
-0 -0 -0 -0 -0 0 0 0 0 0 0 0 0 0 0 0 0 0 0 0 0 0 0 0 0 0 0 0 0 0 0 0
0 -0 -0 -0 -0 -0 -0 -0 0 0 0 0 0 0 0 0 0 0 0 0 0 0 0 0 0 0 0 0 0 0 0 -0
0 0 0 0 0 -0 -0 -0 -0 0 0 0 0 0 0 0 0 0 0 0 0 0 0 0 0 0 0 0 0 0 0 0
Wind_Speed_500mb
5 5 11 12 14 18 22 25 26 25 26 26 26 27 26 24 22 19 12 3 8 15 19 20 21 22 23 25 27 24 25 24
9 12 17 16 19 17 15 18 21 24 23 22 20 20 21 21 21 18 17 14 11 10 13 20 23 21 24 26 28 26 25 28
12 16 16 16 16 21 30 32 29 26 23 22 21 22 21 20 19 19 19 17 15 13 12 15 22 24 23 23 27 27 26 26
18 17 16 18 22 26 28 32 33 30 27 25 25 25 25 23 22 21 20 20 18 18 16 15 17 24 25 23 27 26 30 28
17 13 20 22 22 24 25 29 33 34 32 30 30 29 29 28 26 25 23 22 21 19 18 18 18 19 24 28 25 27 28 30
15 20 23 26 29 31 31 32 34 35 35 34 33 32 32 32 30 27 26 25 23 22 20 19 18 19 20 24 27 28 27 27
17 22 26 31 34 36 38 36 35 37 40 40 38 34 32 32 30 27 24 23 23 23 23 22 20 18 20 22 24 26 27 25
19 23 28 32 36 37 38 41 42 39 39 42 44 42 36 33 30 27 25 24 25 26 25 25 24 23 21 21 23 23 25 26
21 26 31 34 37 39 41 43 44 44 42 41 44 45 44 38 32 31 29 26 24 26 27 28 29 28 27 25 23 23 22 25
25 29 32 38 40 41 42 42 42 43 41 41 41 43 43 45 37 31 30 31 28 25 26 27 29 32 31 28 27 23 19 22
31 32 35 38 39 40 43 46 46 44 44 42 44 44 42 45 43 36 32 30 31 29 27 27 28 29 33 33 29 24 20 18
33 36 37 38 39 40 44 49 52 52 52 49 48 48 45 41 47 44 40 37 35 33 29 27 28 29 31 34 35 31 24 16
45 41 37 39 45 49 50 53 55 60 60 58 56 53 49 44 49 50 48 46 42 39 34 30 27 27 28 31 33 35 32 23
54 57 56 56 54 58 59 61 60 58 60 64 63 61 56 51 49 55 54 53 50 47 43 35 30 27 28 28 29 31 31 27
61 64 64 63 62 62 64 63 63 62 61 60 65 67 63 59 55 55 61 62 59 56 52 45 38 29 30 29 31 28 29 30
72 74 73 70 70 69 70 70 69 68 66 64 62 64 66 64 64 61 61 61 67 65 57 54 50 35 33 30 30 33 33 32
77 74 73 73 74 73 72 73 74 76 74 70 66 65 65 65 67 65 65 62 61 65 66 63 59 47 38 34 33 32 33 35
63 66 70 73 75 72 71 70 73 76 77 76 73 69 67 67 65 69 68 63 65 64 67 68 65 57 47 40 36 37 38 38
54 57 59 62 67 63 61 62 66 69 72 74 76 75 70 68 69 65 63 64 69 64 66 68 67 64 56 48 44 43 43 44
53 56 59 63 65 60 58 58 59 61 66 67 68 70 69 67 66 67 68 72 73 71 70 67 68 65 62 55 57 50 47 47
Wind_Direction_500mb
198 339 350 360 11 17 19 19 22 25 26 29 29 26 24 29 32 30 35 14 280 262 267 272 271 263 266 264 260 268 258 232
248 311 336 343 345 357 6 4 0 359 3 7 13 14 10 5 6 7 7 3 346 317 282 274 279 271 261 258 263 254 261 248
263 297 326 337 341 345 342 339 337 340 344 347 351 352 353 352 352 347 344 342 340 329 305 283 276 274 268 265 263 265 269 262
254 287 312 327 331 330 324 320 318 317 323 329 337 343 346 347 345 344 343 340 337 333 326 307 289 287 283 269 270 268 255 259
263 277 306 319 319 313 311 306 302 299 303 310 319 328 334 339 340 340 338 336 338 338 332 325 309 287 281 278 272 271 269 259
246 296 312 317 319 318 315 303 290 283 279 284 296 307 320 329 333 336 338 338 338 341 342 335 322 307 288 277 273 268 269 267
288 299 305 311 309 306 304 306 304 289 278 274 273 285 299 314 322 327 336 343 345 341 339 340 337 324 309 286 272 269 264 263
307 312 316 314 313 313 308 304 304 302 288 280 276 272 276 291 304 310 315 323 334 344 349 345 340 337 324 313 290 270 266 262
321 318 318 315 313 314 311 308 308 306 300 289 279 273 268 270 283 295 305 312 323 333 338 347 347 342 336 328 315 289 265 265
312 306 303 301 302 306 308 312 308 309 304 297 290 277 269 262 268 280 295 298 305 318 328 333 342 348 344 337 328 320 277 255
297 291 290 289 289 295 302 305 309 311 308 302 295 292 281 257 255 266 281 288 293 301 312 321 328 336 345 343 336 327 311 259
304 294 290 288 292 300 303 303 304 305 305 304 301 297 293 264 250 256 264 275 283 290 300 309 315 319 329 338 340 332 320 296
305 301 297 300 302 302 301 298 296 295 295 294 294 297 296 287 257 254 259 265 274 284 291 297 304 312 318 323 333 334 329 314
298 298 302 306 307 302 299 298 295 292 287 286 284 285 288 288 278 263 258 260 265 272 280 286 292 302 310 314 319 326 328 319
296 299 302 303 303 302 301 298 295 292 289 285 281 280 279 278 277 273 265 260 259 263 271 279 280 288 298 308 311 315 321 317
298 299 299 300 299 299 299 299 296 292 288 285 283 280 278 274 271 270 267 266 263 262 264 268 272 278 284 296 307 312 312 309
298 299 299 299 297 296 295 294 293 290 288 285 280 277 275 274 270 263 263 263 262 260 259 262 265 267 273 281 292 299 301 298
305 301 301 301 299 298 297 292 287 284 284 284 281 276 272 271 269 269 262 257 257 256 255 255 261 262 264 266 275 284 288 291
317 316 316 311 306 307 301 292 286 282 279 277 277 277 273 267 266 265 263 262 256 251 257 256 256 258 259 259 262 268 278 287
329 329 325 321 319 316 308 299 291 285 280 278 275 273 273 271 265 262 260 256 257 256 251 254 258 256 255 254 257 262 268 278
Wind_Speed_850mb
5 5 11 12 14 18 22 25 26 25 26 26 26 27 26 24 22 19 12 3 8 15 19 20 21 22 23 25 27 24 25 24
9 12 17 16 19 17 15 18 21 24 23 22 20 20 21 21 21 18 17 14 11 10 13 20 23 21 24 26 28 26 25 28
12 16 16 16 16 21 30 32 29 26 23 22 21 22 21 20 19 19 19 17 15 13 12 15 22 24 23 23 27 27 26 26
18 17 16 18 22 26 28 32 33 30 27 25 25 25 25 23 22 21 20 20 18 18 16 15 17 24 25 23 27 26 30 28
17 13 20 22 22 24 25 29 33 34 32 30 30 29 29 28 26 25 23 22 21 19 18 18 18 19 24 28 25 27 28 30
15 20 23 26 29 31 31 32 34 35 35 34 33 32 32 32 30 27 26 25 23 22 20 19 18 19 20 24 27 28 27 27
17 22 26 31 34 36 38 36 35 37 40 40 38 34 32 32 30 27 24 23 23 23 23 22 20 18 20 22 24 26 27 25
19 23 28 32 36 37 38 41 42 39 39 42 44 42 36 33 30 27 25 24 25 26 25 25 24 23 21 21 23 23 25 26
21 26 31 34 37 39 41 43 44 44 42 41 44 45 44 38 32 31 29 26 24 26 27 28 29 28 27 25 23 23 22 25
25 29 32 38 40 41 42 42 42 43 41 41 41 43 43 45 37 31 30 31 28 25 26 27 29 32 31 28 27 23 19 22
31 32 35 38 39 40 43 46 46 44 44 42 44 44 42 45 43 36 32 30 31 29 27 27 28 29 33 33 29 24 20 18
33 36 37 38 39 40 44 49 52 52 52 49 48 48 45 41 47 44 40 37 35 33 29 27 28 29 31 34 35 31 24 16
45 41 37 39 45 49 50 53 55 60 60 58 56 53 49 44 49 50 48 46 42 39 34 30 27 27 28 31 33 35 32 23
54 57 56 56 54 58 59 61 60 58 60 64 63 61 56 51 49 55 54 53 50 47 43 35 30 27 28 28 29 31 31 27
61 64 64 63 62 62 64 63 63 62 61 60 65 67 63 59 55 55 61 62 59 56 52 45 38 29 30 29 31 28 29 30
72 74 73 70 70 69 70 70 69 68 66 64 62 64 66 64 64 61 61 61 67 65 57 54 50 35 33 30 30 33 33 32
77 74 73 73 74 73 72 73 74 76 74 70 66 65 65 65 67 65 65 62 61 65 66 63 59 47 38 34 33 32 33 35
63 66 70 73 75 72 71 70 73 76 77 76 73 69 67 67 65 69 68 63 65 64 67 68 65 57 47 40 36 37 38 38
54 57 59 62 67 63 61 62 66 69 72 74 76 75 70 68 69 65 63 64 69 64 66 68 67 64 56 48 44 43 43 44
53 56 59 63 65 60 58 58 59 61 66 67 68 70 69 67 66 67 68 72 73 71 70 67 68 65 62 55 57 50 47 47
Wind_Direction_850mb
198 339 350 360 11 17 19 19 22 25 26 29 29 26 24 29 32 30 35 14 280 262 267 272 271 263 266 264 260 268 258 232
248 311 336 343 345 357 6 4 0 359 3 7 13 14 10 5 6 7 7 3 346 317 282 274 279 271 261 258 263 254 261 248
263 297 326 337 341 345 342 339 337 340 344 347 351 352 353 352 352 347 344 342 340 329 305 283 276 274 268 265 263 265 269 262
254 287 312 327 331 330 324 320 318 317 323 329 337 343 346 347 345 344 343 340 337 333 326 307 289 287 283 269 270 268 255 259
263 277 306 319 319 313 311 306 302 299 303 310 319 328 334 339 340 340 338 336 338 338 332 325 309 287 281 278 272 271 269 259
246 296 312 317 319 318 315 303 290 283 279 284 296 307 320 329 333 336 338 338 338 341 342 335 322 307 288 277 273 268 269 267
288 299 305 311 309 306 304 306 304 289 278 274 273 285 299 314 322 327 336 343 345 341 339 340 337 324 309 286 272 269 264 263
307 312 316 314 313 313 308 304 304 302 288 280 276 272 276 291 304 310 315 323 334 344 349 345 340 337 324 313 290 270 266 262
321 318 318 315 313 314 311 308 308 306 300 289 279 273 268 270 283 295 305 312 323 333 338 347 347 342 336 328 315 289 265 265
312 306 303 301 302 306 308 312 308 309 304 297 290 277 269 262 268 280 295 298 305 318 328 333 342 348 344 337 328 320 277 255
297 291 290 289 289 295 302 305 309 311 308 302 295 292 281 257 255 266 281 288 293 301 312 321 328 336 345 343 336 327 311 259
304 294 290 288 292 300 303 303 304 305 305 304 301 297 293 264 250 256 264 275 283 290 300 309 315 319 329 338 340 332 320 296
305 301 297 300 302 302 301 298 296 295 295 294 294 297 296 287 257 254 259 265 274 284 291 297 304 312 318 323 333 334 329 314
298 298 302 306 307 302 299 298 295 292 287 286 284 285 288 288 278 263 258 260 265 272 280 286 292 302 310 314 319 326 328 319
296 299 302 303 303 302 301 298 295 292 289 285 281 280 279 278 277 273 265 260 259 263 271 279 280 288 298 308 311 315 321 317
298 299 299 300 299 299 299 299 296 292 288 285 283 280 278 274 271 270 267 266 263 262 264 268 272 278 284 296 307 312 312 309
298 299 299 299 297 296 295 294 293 290 288 285 280 277 275 274 270 263 263 263 262 260 259 262 265 267 273 281 292 299 301 298
305 301 301 301 299 298 297 292 287 284 284 284 281 276 272 271 269 269 262 257 257 256 255 255 261 262 264 266 275 284 288 291
317 316 316 311 306 307 301 292 286 282 279 277 277 277 273 267 266 265 263 262 256 251 257 256 256 258 259 259 262 268 278 287
329 329 325 321 319 316 308 299 291 285 280 278 275 273 273 271 265 262 260 256 257 256 251 254 258 256 255 254 257 262 268 278